Location: Prairie Dale
(45.6972°N, 104.5033°W)
Time: 19:57:50
(UTC+00:00)

Envisat - Pass Details

Date: 26 January 2022
Orbit: 764 x 765 km, 98.2° (Epoch: 22 May)

Event Time Altitude Azimuth Distance (km) Brightness Sun altitude
Rises 12:37:28 0° 7° (N) 3,241 6.2 -18.9°
Reaches altitude 10° 12:39:52 10° 0° (N) 2,311 5.4 -18.5°
Maximum altitude 12:44:38 42° 291° (WNW) 1,089 3.3 -17.7°
Drops below altitude 10° 12:49:22 10° 222° (SW) 2,297 5.2 -16.8°
Sets 12:51:46 0° 216° (SW) 3,219 6.0 -16.4°
